Flag for Portugal Weather past 2 weeks in Viana do Castelo, Portugal

Now
68 °F

Broken clouds.


Feels Like: 68 °F
Forecast: 65 / 71 °F
Wind: 21 mph from South

Location: Porto / Pedras Rubras

Current Time: Sep 18, 2014 at 3:42:11 PM

Latest Report: Sep 18, 2014 at 3:00 PM


Visibility: 6 mi

Pressure: 29.65 "Hg

Humidity: 88%

Dew point: 64 °F

Location of Viana do CasteloLocation

Historic Weather in Viana do Castelo — Graph

°F

Viana do Castelo temperature yesterday

Maximum temperature yesterday: 73 °F (at 1:30 PM)
Minimum temperature yesterday: 66 °F (at 5:30 AM)
Average temperature yesterday: 69 °F

Past Weeks' High & Low Weather Summary

 TemperatureHumidityPressure
High81 °F (Sep 11, 2:30 PM)100% (Sep 4, 11:30 PM)30.04 "Hg (Sep 4, 11:30 PM)
Low57 °F (Sep 5, 4:30 AM)51% (Sep 10, 1:00 PM)29.50 "Hg (Sep 16, 11:00 PM)
Average69 °F84%29.88 "Hg
* Reported Sep 3 2:00 PM — Sep 18 2:30 PM, Viana do Castelo, Weather by CustomWeather, © 2014

Note: Actual official high and low records may vary slightly from our data, if they occured in-between our weather recording intervals... More about our weather records

Advertising

Viana do Castelo weather history for previous 24 hours

 ConditionsComfort  
Time TempWeatherWind HumidityBarometerVisibility
2:30 PM
Sep 18
68 °FLight rain. Mostly cloudy.18 mph88%29.65 "Hg6 mi
2:00 PM66 °FLight rain. Cloudy.20 mph94%29.65 "Hg4 mi
1:30 PM66 °FRain. Fog.17 mph94%29.65 "Hg2 mi
1:00 PM66 °FLight rain. Mostly cloudy.21 mph94%29.65 "Hg5 mi
12:30 PM66 °FRain. Fog.22 mph88%29.65 "Hg2 mi
12:00 PM66 °FLight rain. More clouds than sun.21 mph94%29.65 "Hg4 mi
11:30 AM66 °FLight rain. More clouds than sun.22 mph88%29.65 "Hg4 mi
11:00 AM64 °FLight rain. Mostly cloudy.23 mph94%29.65 "Hg4 mi
10:30 AM63 °FRain. Fog.21 mph100%29.65 "Hg1 mi
10:00 AM64 °FRain. Fog.28 mph94%29.62 "Hg2 mi
9:30 AM64 °FRain. Fog.28 mph94%29.62 "Hg2 mi
9:00 AM64 °FLight rain. More clouds than sun.26 mph88%29.62 "Hg4 mi
8:30 AM66 °FLight rain. More clouds than sun.26 mph83%29.62 "Hg6 mi
8:00 AM66 °FSprinkles. Partly cloudy.28 mph83%29.59 "Hg4 mi
7:30 AM64 °FSprinkles. Partly cloudy.24 mph88%29.59 "Hg4 mi
7:00 AM66 °FSprinkles. Partly cloudy.22 mph83%29.59 "Hg5 mi
6:30 AM66 °FSprinkles. Partly cloudy.24 mph83%29.59 "HgN/A
6:00 AM66 °FPartly cloudy.23 mph83%29.59 "HgN/A
5:30 AM66 °FPassing clouds.24 mph83%29.59 "HgN/A
5:00 AM66 °FPartly cloudy.23 mph83%29.62 "HgN/A
4:30 AM66 °FPartly cloudy.23 mph88%29.62 "HgN/A
4:00 AM66 °FPartly cloudy.23 mph88%29.62 "HgN/A
3:30 AM66 °FPartly cloudy.21 mph88%29.62 "HgN/A
3:00 AM66 °FSprinkles. Partly cloudy.23 mph88%29.62 "HgN/A
2:30 AM66 °FPartly cloudy.22 mph88%29.65 "HgN/A
2:00 AM66 °FPartly cloudy.21 mph88%29.65 "HgN/A
1:30 AM66 °FPartly cloudy.17 mph88%29.65 "HgN/A
1:00 AM66 °FPartly cloudy.18 mph88%29.65 "HgN/A
12:30 AM66 °FSprinkles. Partly cloudy.17 mph88%29.65 "HgN/A
12:00 AM66 °FPartly cloudy.17 mph88%29.65 "HgN/A
11:30 PM
Sep 17
66 °FPartly cloudy.16 mph88%29.65 "HgN/A
11:00 PM66 °FPartly cloudy.16 mph88%29.65 "HgN/A
10:30 PM66 °FSprinkles. Partly cloudy.21 mph94%29.65 "Hg4 mi
10:00 PM68 °FPartly cloudy.17 mph88%29.65 "HgN/A
9:30 PM68 °FPartly cloudy.17 mph94%29.65 "HgN/A
9:00 PM70 °FPartly cloudy.18 mph83%29.65 "HgN/A
8:30 PM70 °FSnow. Broken clouds.17 mph83%29.65 "HgN/A
8:00 PM70 °FSnow. Broken clouds.17 mph83%29.65 "HgN/A
7:30 PM70 °FSnow. Broken clouds.16 mph83%29.62 "HgN/A
7:00 PM70 °FSnow. Scattered clouds.17 mph83%29.62 "HgN/A
6:30 PM70 °FSnow. Scattered clouds.18 mph83%29.62 "HgN/A
6:00 PM70 °FSnow. Scattered clouds.16 mph83%29.62 "HgN/A
5:30 PM70 °FScattered clouds.17 mph83%29.62 "HgN/A
5:00 PM72 °FScattered clouds.18 mph78%29.62 "HgN/A
4:30 PM72 °FScattered clouds.14 mph78%29.62 "HgN/A
4:00 PM72 °FScattered clouds.18 mph78%29.62 "HgN/A
3:30 PM72 °FScattered clouds.18 mph78%29.62 "HgN/A
3:00 PM72 °FPartly sunny.18 mph78%29.62 "HgN/A
Weather by CustomWeather, © 2014

See weather overviewHow to use our weather pages